TDRS 11                 
1 39070U 13004A   19256.96160436  .00000065  00000-0  00000+0 0  9995
2 39070   4.2403 330.1227 0002257 106.8851  87.3606  1.00272413 24238
ATLAS 5 CENTAUR R/B     
1 39071U 13004B   19258.13091797 -.00000187  00000-0  00000+0 0  9996
2 39071  25.7276 296.6317 5903362 131.9557 296.0472  2.09793846 50737